West Palm Beach, FL

6:01 PM EDT on August 24, 2019 (GMT -0400)
Palm Beach International

Weather History for KPBI - May, 2019

Change the Weather History Date:

Thursday, May 16, 2019

  Actual Average Record
Temperature  
Mean Temperature 81 °F 78 °F  
Max Temperature 84 °F 86 °F 93 °F (1916)
Min Temperature 77 °F 71 °F 53 °F (1917)
Degree Days  
Heating Degree Days 0 0  
Month to date heating degree days 0 0  
Since 1 July heating degree days 144 233  
Cooling Degree Days 16 13  
Month to date cooling degree days 233 194  
Year to date cooling degree days 1158 889  
Growing Degree Days 30 (Base 50)    
Moisture  
Dew Point 64 °F    
Average Humidity 59    
Maximum Humidity 71    
Minimum Humidity 47    
Precipitation  
Precipitation 0.00 in 0.14 in 2.00 in (1921)
Month to date precipitation 5.29 1.65  
Year to date precipitation 21.01 15.85  
Snow  
Snow 0.00 in - - ()
Month to date snowfall 0.0  
Since 1 July snowfall 0.0  
Snow Depth 0.00 in    
Sea Level Pressure  
Sea Level Pressure 30.01 in    
Wind  
Wind Speed 11 mph (ENE)    
Max Wind Speed 20 mph    
Max Gust Speed 26 mph    
Visibility 10 miles    
Events      
T = Trace of Precipitation, MM = Missing Value Source: NWS Daily Summary

Daily Weather History Graph

Daily Weather History Graph

Search for Another Location

Airport or City:

Astronomy

May. 16, 2019 Rise Set
Actual Time 6:32 AM EDT 8:01 PM EDT
Civil Twilight 6:07 AM EDT 8:26 PM EDT
Nautical Twilight 5:37 AM EDT 8:56 PM EDT
Astronomical Twilight 5:06 AM EDT 9:27 PM EDT
Moon 5:57 PM EDT (5/16) 5:07 AM EDT (5/16)
Length of Visible Light 14h 18m
Length of Day
13h 28m
Waxing Gibbous, 94% of the Moon is Illuminated
May 16
Waxing Gibbous
May 18
Full
May 26
Last Quarter
Jun 3
New
Jun 10
First Quarter

Hourly Weather History & Observations

Time (EDT) Temp. Heat Index Dew Point Humidity Pressure Visibility Wind Dir Wind Speed Gust Speed Precip Events Conditions
12:53 AM 79.0 °F - 66.9 °F 66% 29.99 in 10.0 mi ENE 10.4 mph - N/A   Mostly Cloudy
1:53 AM 78.1 °F - 68.0 °F 71% 29.97 in 10.0 mi East 6.9 mph - N/A   Mostly Cloudy
2:53 AM 78.1 °F - 66.9 °F 68% 29.96 in 10.0 mi ENE 8.1 mph - N/A   Mostly Cloudy
3:53 AM 78.1 °F - 66.0 °F 66% 29.95 in 10.0 mi ENE 9.2 mph - N/A   Mostly Cloudy
4:53 AM 78.1 °F - 66.0 °F 66% 29.96 in 10.0 mi ENE 9.2 mph - N/A   Mostly Cloudy
5:53 AM 78.1 °F - 66.0 °F 66% 29.97 in 10.0 mi ENE 8.1 mph - N/A   Mostly Cloudy
6:53 AM 78.1 °F - 66.0 °F 66% 30.00 in 10.0 mi ENE 9.2 mph - N/A   Mostly Cloudy
7:53 AM 78.1 °F - 64.9 °F 64% 30.01 in 10.0 mi ENE 10.4 mph - N/A   Mostly Cloudy
8:53 AM 79.0 °F - 64.0 °F 60% 30.02 in 10.0 mi ENE 13.8 mph - N/A   Mostly Cloudy
9:53 AM 81.0 °F 82.5 °F 64.0 °F 56% 30.04 in 10.0 mi ENE 15.0 mph - N/A   Mostly Cloudy
10:53 AM 81.0 °F 81.9 °F 62.1 °F 52% 30.06 in 10.0 mi ENE 15.0 mph - N/A   Mostly Cloudy
11:53 AM 82.0 °F 83.0 °F 62.1 °F 51% 30.06 in 10.0 mi ENE 16.1 mph - N/A   Mostly Cloudy
12:53 PM 82.9 °F 83.3 °F 61.0 °F 47% 30.05 in 10.0 mi East 17.3 mph 24.2 mph N/A   Mostly Cloudy
1:53 PM 82.0 °F 82.4 °F 60.1 °F 47% 30.04 in 10.0 mi ENE 13.8 mph - N/A   Mostly Cloudy
2:53 PM 82.0 °F 82.7 °F 61.0 °F 49% 30.02 in 10.0 mi East 13.8 mph 21.9 mph N/A   Scattered Clouds
3:53 PM 82.9 °F 83.2 °F 60.1 °F 46% 30.01 in 10.0 mi ENE 16.1 mph 21.9 mph N/A   Scattered Clouds
4:53 PM 82.0 °F 82.7 °F 61.0 °F 49% 30.00 in 10.0 mi ENE 13.8 mph - N/A   Scattered Clouds
5:53 PM 81.0 °F 82.2 °F 63.0 °F 54% 30.00 in 10.0 mi ENE 15.0 mph - N/A   Mostly Cloudy
6:53 PM 79.0 °F - 63.0 °F 58% 30.00 in 10.0 mi ENE 9.2 mph - N/A   Scattered Clouds
7:53 PM 78.1 °F - 64.0 °F 62% 30.00 in 10.0 mi ENE 10.4 mph - N/A   Scattered Clouds
8:53 PM 78.1 °F - 63.0 °F 60% 30.01 in 10.0 mi ENE 9.2 mph - N/A   Scattered Clouds
9:53 PM 78.1 °F - 63.0 °F 60% 30.02 in 10.0 mi ENE 9.2 mph - N/A   Scattered Clouds
10:53 PM 77.0 °F - 63.0 °F 62% 30.03 in 10.0 mi ENE 6.9 mph - N/A   Scattered Clouds
11:53 PM 77.0 °F - 64.0 °F 64% 30.03 in 10.0 mi East 8.1 mph - N/A   Scattered Clouds